DL3CR Weather Reports


Display with metric or nautical units.
time (UTC)temp
F
wind
direction
speed
MPH
gust
MPH
rain 1hr
in
rain 24hr
in
rain mn
in
humidity
%
barometer
mb
20200923110514 71 9 3.0 9.0 0.00 0.00 0.00 56 1022.7
20200923105005 70 16 3.0 9.0 0.00 0.00 0.00 58 1022.9
20200923104515 70 341 4.0 9.0 0.00 0.00 0.00 58 1023.1
20200923103508 70 356 6.0 8.0 0.00 0.00 0.00 58 1023.0
20200923103010 70 7 2.0 6.0 0.00 0.00 0.00 57 1023.0
20200923102508 70 6 4.0 8.0 0.00 0.00 0.00 57 1023.0
20200923101017 69 11 7.0 11.0 0.00 0.00 0.00 60 1023.1
20200923100511 69 22 4.0 9.0 0.00 0.00 0.00 62 1023.3
20200923095510 69 37 2.0 9.0 0.00 0.00 0.00 64 1023.4
20200923095008 68 49 2.0 9.0 0.00 0.00 0.00 66 1023.2
20200923094514 68 71 3.0 10.0 0.00 0.00 0.00 68 1023.3
20200923091523 67 335 3.0 10.0 0.00 0.00 0.00 72 1023.3
20200923091010 67 342 6.0 11.0 0.00 0.00 0.00 73 1023.5
20200923085009 64 24 2.0 14.0 0.00 0.00 0.00 74 1023.3
20200923082512 64 20 4.0 9.0 0.00 0.00 0.00 73 1023.2
20200923081517 64 2 5.0 9.0 0.00 0.00 0.00 74 1023.4
20200923081008 64 5 4.0 9.0 0.00 0.00 0.00 74 1023.3
20200923080510 63 350 4.0 6.0 0.00 0.00 0.00 75 1023.3
20200923080019 63 331 4.0 8.0 0.00 0.00 0.00 75 1023.4
20200923075509 62 321 4.0 8.0 0.00 0.00 0.00 75 1023.3
20200923074017 63 12 3.0 10.0 0.00 0.00 0.00 72 1023.3
20200923073512 63 355 4.0 11.0 0.00 0.00 0.00 71 1023.4
20200923073027 63 352 3.0 11.0 0.00 0.00 0.00 71 1023.4
20200923072512 63 359 7.0 12.0 0.00 0.00 0.00 71 1023.4
20200923071527 63 355 7.0 10.0 0.00 0.00 0.00 71 1023.1
20200923065516 61 355 2.0 7.0 0.00 0.00 0.00 74 1023.1
20200923065011 61 357 4.0 8.0 0.00 0.00 0.00 74 1022.9
20200923064515 61 1 3.0 8.0 0.00 0.00 0.00 73 1023.0
20200923064014 61 345 5.0 8.0 0.00 0.00 0.00 73 1023.1
20200923063511 61 336 4.0 8.0 0.00 0.00 0.00 73 1022.8
20200923063021 61 3 5.0 10.0 0.00 0.00 0.00 73 1022.7
20200923062507 61 2 4.0 10.0 0.00 0.00 0.00 73 1022.7
20200923062012 61 356 5.0 10.0 0.00 0.00 0.00 74 1022.7
20200923061524 60 5 4.0 7.0 0.00 0.00 0.00 74 1022.8
20200923060021 60 43 1.0 5.0 0.00 0.00 0.00 73 1022.7
20200923055511 60 34 1.0 5.0 0.00 0.00 0.00 73 1022.6
20200923054516 60 14 2.0 5.0 0.00 0.00 0.00 74 1022.6
20200923054033 60 23 2.0 4.0 0.00 0.00 0.00 75 1022.6
20200923053510 60 18 2.0 4.0 0.00 0.00 0.00 75 1022.5
20200923053018 60 4 2.0 4.0 0.00 0.00 0.00 74 1022.5
20200923052514 60 19 2.0 4.0 0.00 0.00 0.00 73 1022.6
20200923052005 61 23 2.0 5.0 0.00 0.00 0.00 72 1022.4
20200923051522 61 6 2.0 5.0 0.00 0.00 0.00 71 1022.5
20200923051010 61 359 4.0 7.0 0.00 0.00 0.00 71 1022.4
20200923050510 61 358 3.0 7.0 0.00 0.00 0.00 71 1022.4
20200923043513 61 11 2.0 6.0 0.00 0.00 0.00 71 1022.3
20200923043009 61 7 4.0 6.0 0.00 0.00 0.00 71 1022.2
20200923042516 61 9 4.0 8.0 0.00 0.00 0.00 71 1022.3
20200923042014 61 5 3.0 8.0 0.00 0.00 0.00 71 1022.3
20200923041010 62 348 4.0 7.0 0.00 0.00 0.00 72 1022.4
20200923040019 61 19 4.0 7.0 0.00 0.00 0.00 72 1022.1
20200923035509 62 29 4.0 7.0 0.00 0.00 0.00 71 1022.3
20200923034007 62 23 4.0 8.0 0.00 0.00 0.00 70 1022.3
20200923031008 64 21 4.0 7.0 0.00 0.00 0.00 67 1022.2
20200923024007 64 4 4.0 8.0 0.00 0.00 0.00 68 1022.2
20200923021518 64 5 4.0 8.0 0.00 0.00 0.00 69 1022.0
20200923020510 66 26 4.0 8.0 0.00 0.00 0.00 67 1022.3
20200923020026 66 359 4.0 8.0 0.00 0.00 0.00 67 1022.3
20200923015518 66 349 3.0 7.0 0.00 0.00 0.00 66 1022.2
20200923015011 66 1 4.0 7.0 0.00 0.00 0.00 66 1022.4
20200923014012 66 3 3.0 8.0 0.00 0.00 0.00 66 1022.2
20200923013019 66 8 5.0 7.0 0.00 0.00 0.00 66 1022.5
20200923011011 66 351 4.0 6.0 0.00 0.00 0.00 64 1022.3
20200923005522 66 354 3.0 5.0 0.00 0.00 0.00 65 1022.4
20200923004514 66 32 3.0 6.0 0.00 0.00 0.00 66 1022.5
20200923004008 66 48 3.0 6.0 0.00 0.00 0.00 66 1022.6
20200923003509 66 14 4.0 6.0 0.00 0.00 0.00 66 1022.6
20200923002009 66 6 2.0 5.0 0.00 0.00 0.00 67 1022.7
20200923000512 67 6 2.0 4.0 0.00 0.00 0.00 64 1022.5
20200923000021 67 13 2.0 4.0 0.00 0.00 0.00 64 1022.4
20200922235508 67 22 3.0 5.0 0.00 0.00 0.00 63 1022.6
20200922235009 67 17 2.0 6.0 0.00 0.00 0.00 63 1022.5
20200922234007 67 358 2.0 4.0 0.00 0.00 0.00 65 1022.4
20200922232007 66 25 3.0 5.0 0.00 0.00 0.00 72 1022.4
20200922231520 66 21 3.0 7.0 0.00 0.00 0.00 73 1022.4
20200922225511 65 0 0.0 0.0 0.00 0.00 0.00 74 1022.3
20200922225015 65 0 0.0 0.0 0.00 0.00 0.00 75 1022.3
20200922224519 65 158 0.0 24.0 0.00 0.00 0.00 75 1022.4
20200922223012 64 158 1.0 24.0 0.00 6.88 0.00 1 1022.7
20200922222512 66 0 0.0 0.0 0.00 0.00 0.00 73 1022.6
20200922220511 68 0 0.0 0.0 0.00 0.00 0.00 68 1022.5
20200922220024 68 59 0.0 3.0 0.00 0.00 0.00 68 1022.6
20200922215010 68 97 2.0 5.0 0.00 0.00 0.00 69 1022.4
20200922214517 67 90 3.0 5.0 0.00 0.00 0.00 71 1022.6
20200922214016 67 118 1.0 4.0 0.00 0.00 0.00 71 1022.5
20200922213510 67 145 0.0 4.0 0.00 0.00 0.00 71 1022.7
20200922212511 67 339 0.0 2.0 0.00 0.00 0.00 71 1022.4
20200922212012 67 1 1.0 2.0 0.00 0.00 0.00 71 1022.5
20200922210008 67 359 0.0 1.0 0.00 0.00 0.00 71 1022.5
20200922205011 67 270 0.0 1.0 0.00 0.00 0.00 71 1022.6
20200922204516 68 270 0.0 1.0 0.00 0.00 0.00 71 1022.4
20200922203509 68 0 0.0 0.0 0.00 0.00 0.00 69 1022.5
20200922202009 69 0 0.0 0.0 0.00 0.00 0.00 68 1022.6
20200922201510 69 314 0.0 2.0 0.00 0.00 0.00 68 1022.6
20200922200022 69 299 0.0 3.0 0.00 0.00 0.00 67 1022.8
20200922195507 69 282 0.0 4.0 0.00 0.00 0.00 68 1022.8
20200922195010 69 215 1.0 4.0 0.00 0.00 0.00 68 1022.8
20200922194511 69 0 0.0 0.0 0.00 0.00 0.00 68 1022.7
20200922194010 69 0 0.0 0.0 0.00 0.00 0.00 68 1022.8
20200922193511 69 0 0.0 0.0 0.00 0.00 0.00 67 1022.6
20200922193017 69 0 0.0 0.0 0.00 0.00 0.00 66 1022.5
20200922192510 69 0 0.0 0.0 0.00 0.00 0.00 65 1022.7
20200922192006 69 0 0.0 0.0 0.00 0.00 0.00 65 1022.5
20200922191520 69 0 0.0 0.0 0.00 0.00 0.00 65 1022.6
20200922191009 69 0 0.0 0.0 0.00 0.00 0.00 64 1022.8
20200922190021 69 0 0.0 0.0 0.00 0.00 0.00 64 1022.8
20200922185514 69 0 0.0 0.0 0.00 0.00 0.00 64 1022.7
20200922185006 70 0 0.0 0.0 0.00 0.00 0.00 64 1022.7
20200922183509 70 0 0.0 0.0 0.00 0.00 0.00 63 1022.7
20200922182008 70 0 0.0 0.0 0.00 0.00 0.00 61 1022.6
20200922181518 70 0 0.0 0.0 0.00 0.00 0.00 61 1022.5
20200922181025 70 0 0.0 0.0 0.00 0.00 0.00 60 1022.5
20200922180011 71 0 0.0 0.0 0.00 0.00 0.00 59 1022.4
20200922175521 71 0 0.0 0.0 0.00 0.00 0.00 58 1022.4
20200922175009 71 0 0.0 0.0 0.00 0.00 0.00 57 1022.4
20200922173509 72 1 0.0 1.0 0.00 0.00 0.00 54 1022.5
20200922173023 73 0 0.0 0.0 0.00 0.00 0.00 53 1022.4
20200922171520 74 1 0.0 2.0 0.00 0.00 0.00 53 1022.4
20200922171007 74 1 0.0 2.0 0.00 0.00 0.00 53 1022.5
20200922170512 74 0 0.0 0.0 0.00 0.00 0.00 53 1022.5
20200922170019 74 0 0.0 0.0 0.00 0.00 0.00 53 1022.6
20200922165512 75 0 0.0 0.0 0.00 0.00 0.00 53 1022.5
20200922165011 75 342 0.0 3.0 0.00 0.00 0.00 52 1022.5
20200922164518 75 330 0.0 4.0 0.00 0.00 0.00 50 1022.5
20200922164007 76 326 0.0 4.0 0.00 0.00 0.00 49 1022.7
20200922162511 76 276 0.0 2.0 0.00 0.00 0.00 48 1022.7
20200922162011 76 239 0.0 2.0 0.00 0.00 0.00 47 1022.6
20200922160507 78 321 1.0 3.0 0.00 0.00 0.00 44 1022.7
20200922160020 78 314 1.0 5.0 0.00 0.00 0.00 44 1022.7
20200922154012 80 313 1.0 7.0 0.00 0.00 0.00 39 1022.8
20200922153018 80 321 1.0 5.0 0.00 0.00 0.00 37 1022.9
20200922152010 82 16 2.0 6.0 0.00 0.00 0.00 31 1023.0
20200922151014 83 341 2.0 8.0 0.00 0.00 0.00 28 1023.1
20200922145518 86 33 2.0 7.0 0.00 0.00 0.00 24 1023.4
20200922145005 84 15 2.0 9.0 0.00 0.00 0.00 26 1023.4
20200922144510 84 10 5.0 9.0 0.00 0.00 0.00 25 1023.5
20200922144011 84 4 4.0 8.0 0.00 0.00 0.00 24 1023.6
20200922142507 83 66 6.0 9.0 0.00 0.00 0.00 26 1023.9
20200922142009 83 17 4.0 8.0 0.00 0.00 0.00 26 1023.7
20200922141007 83 89 2.0 8.0 0.00 0.00 0.00 28 1024.0
20200922140510 83 68 4.0 8.0 0.00 0.00 0.00 28 1024.3
20200922140017 83 48 4.0 8.0 0.00 0.00 0.00 28 1024.2
20200922135511 84 21 4.0 6.0 0.00 0.00 0.00 25 1024.2
20200922134522 83 13 2.0 6.0 0.00 0.00 0.00 31 1024.3
20200922134007 83 359 4.0 6.0 0.00 0.00 0.00 32 1024.3
20200922133010 83 325 1.0 8.0 0.00 0.00 0.00 32 1024.4
20200922132507 83 325 4.0 8.0 0.00 0.00 0.00 32 1024.2
20200922131520 83 11 2.0 5.0 0.00 0.00 0.00 32 1024.3
20200922131010 83 343 4.0 5.0 0.00 0.00 0.00 32 1024.5
20200922124017 80 312 4.0 8.0 0.00 0.00 0.00 34 1024.8
20200922123510 80 326 3.0 8.0 0.00 0.00 0.00 33 1024.9
20200922122007 79 1 3.0 12.0 0.00 0.00 0.00 42 1024.9
20200922121519 79 325 7.0 12.0 0.00 0.00 0.00 42 1025.1
20200922115510 78 349 4.0 10.0 0.00 0.00 0.00 45 1025.2
20200922115015 78 336 2.0 7.0 0.00 0.00 0.00 46 1025.1
20200922114010 78 20 2.0 5.0 0.00 0.00 0.00 47 1025.1
20200922113015 78 34 3.0 4.0 0.00 0.00 0.00 48 1025.4
20200922112510 78 346 2.0 4.0 0.00 0.00 0.00 47 1025.3
20200922112015 78 321 4.0 5.0 0.00 0.00 0.00 48 1025.5
20200922111011 77 283 4.0 6.0 0.00 0.00 0.00 51 1025.6